Flag for India Weather past 2 weeks in Thiruvananthapuram, Kerala, India

Now
88 °F

Scattered clouds.


Feels Like: 102 °F
Forecast: 78 / 85 °F
Wind: 10 mph from Southwest

Location: Thiruvananthapuram

Current Time: Jun 30, 2015 at 2:51:52 PM

Latest Report: Jun 30, 2015 at 2:10 PM


Visibility: 3 mi

Pressure: 29.80 "Hg

Humidity: 75%

Dew point: 79 °F

Location of ThiruvananthapuramLocation

Historic Weather in Thiruvananthapuram — Graph

°F

Thiruvananthapuram temperature yesterday

Maximum temperature yesterday: 84 °F (at 11:40 AM)
Minimum temperature yesterday: 48 °F (at 12:10 PM)
Average temperature yesterday: 80 °F

Past Weeks' High & Low Weather Summary

 TemperatureHumidityPressure
High90 °F (Jun 20, 12:10 PM)100% (Jun 28, 3:10 AM)29.92 "Hg (Jun 28, 3:10 AM)
Low48 °F (Jun 29, 12:10 PM)63% (Jun 20, 12:10 PM)29.65 "Hg (Jun 17, 3:40 PM)
Average82 °F81%29.77 "Hg
* Reported Jun 15 2:10 PM — Jun 30 1:40 PM, Thiruvananthapuram, Weather by CustomWeather, © 2015

Note: Actual official high and low records may vary slightly from our data, if they occured in-between our weather recording intervals... More about our weather records

Advertising

Thiruvananthapuram weather history for previous 24 hours

 ConditionsComfort  
Time TempWeatherWind HumidityBarometerVisibility
1:40 PM
Tue, Jun 30
88 °FScattered clouds.9 mph75%29.83 "Hg3 mi
12:40 PM88 °FPassing clouds.10 mph70%29.86 "Hg4 mi
12:10 PMN/APassing clouds.7 mphN/AN/A4 mi
11:40 AM88 °FPassing clouds.7 mph70%29.86 "Hg4 mi
10:40 AM86 °FPassing clouds.8 mph75%29.86 "Hg4 mi
10:10 AM86 °FPassing clouds.9 mph75%29.86 "Hg4 mi
9:40 AM86 °FPassing clouds.9 mph70%29.86 "Hg4 mi
9:10 AM84 °FHaze.8 mph74%29.86 "Hg3 mi
8:10 AM82 °FScattered clouds.6 mph79%29.83 "Hg3 mi
7:40 AM82 °FHaze.3 mph79%29.83 "Hg3 mi
6:40 AM79 °FScattered clouds.No wind89%29.83 "Hg2 mi
5:40 AM79 °FPartly cloudy.3 mph89%29.80 "Hg2 mi
5:10 AM79 °FPartly cloudy.3 mph89%29.80 "Hg2 mi
4:40 AM79 °FPartly cloudy.3 mph89%29.80 "Hg2 mi
4:10 AM79 °FPartly cloudy.3 mph89%29.80 "Hg2 mi
3:40 AM79 °FPartly cloudy.3 mph89%29.80 "Hg2 mi
3:10 AM79 °FPartly cloudy.3 mph89%29.83 "Hg2 mi
2:40 AM79 °FPartly cloudy.3 mph89%29.83 "Hg2 mi
2:10 AM79 °FPartly cloudy.3 mph89%29.83 "Hg2 mi
1:40 AM79 °FPartly cloudy.No wind89%29.83 "Hg2 mi
1:10 AM79 °FPartly cloudy.No wind89%29.86 "Hg2 mi
11:40 PM
Mon, Jun 29
79 °FPartly cloudy.5 mph89%29.89 "Hg2 mi
11:10 PM79 °FPartly cloudy.No wind89%29.89 "Hg2 mi
10:40 PM79 °FPartly cloudy.3 mph89%29.89 "Hg2 mi
10:10 PM79 °FPartly cloudy.No wind89%29.89 "Hg2 mi
9:10 PM79 °FPartly cloudy.No wind89%29.89 "Hg2 mi
8:40 PM79 °FPartly cloudy.3 mph89%29.89 "Hg2 mi
7:40 PM79 °FPartly cloudy.5 mph89%29.89 "Hg2 mi
6:40 PM81 °FBroken clouds.3 mph84%29.86 "Hg2 mi
6:10 PM81 °FDrizzle. Broken clouds.5 mph84%29.83 "Hg2 mi
5:40 PM81 °FDrizzle. More clouds than sun.5 mph84%29.83 "Hg2 mi
5:10 PM81 °FMore clouds than sun.10 mph84%29.86 "Hg2 mi
4:40 PM82 °FBroken clouds.6 mph84%29.83 "Hg2 mi
4:10 PM84 °FScattered clouds.6 mph79%29.83 "Hg2 mi
3:10 PM84 °FBroken clouds.5 mph79%29.83 "Hg2 mi
Weather by CustomWeather, © 2015

See weather overviewHow to use our weather pages